Powrót do katalogu

CZ-6A DEB

AktywnySSO
NORAD 54292·DEBRIS·🇨🇳 China

Wystrzelony Nov 11, 2022 z Taiyuan Satellite Launch Center

Loading…

Następne Przeloty (najbliższe 24 godziny)

TLE

ŚwieżeSource: Space-Track

Epoka: Sep 14, 2026, 06:05 UTC

1 54292U 22151AK  26257.25347950  .00000059  00000-0  61255-4 0  9997
2 54292  98.8809 249.7815 0063126 115.6606 245.1101 14.05798240196443

Śledź CZ-6A DEB w czasie rzeczywistym z AllMySat

Download on the App Store